Location: Cisewo
(53.3833°N, 14.9000°E)
Time: 10:39:25
(UTC+00:00)

POLYITAN 1 - Pass Details

Date: 28 September 2021
Orbit: 589 x 611 km, 97.9° (Epoch: 19 October)

Event Time Altitude Azimuth Distance (km) Brightness Sun altitude
Rises 01:59:46 0° 5° (N) 2,864 ? -25.7°
Reaches altitude 10° 02:02:24 10° 349° (NNW) 1,951 ? -25.4°
Enters shadow 02:03:56 17° 330° (NNW) 1,561 ? -25.2°
